This is the latest recevied weather packets stored in our database for station/object KC2GYU. If no packets are shown the sender has not sent any weather packets the latest 10 day(s).
| Time | Temp. | Humidity | Pressure | Rain* | Wind** | Luminosity | Snow |
|---|---|---|---|---|---|---|---|
| 1778265447 | 20.56° C | 39% | 1013.8 hPa | 0 mm | - | 613 W/m² | - |
| 1778265143 | 20° C | 39% | 1013.7 hPa | 0 mm | - | 633 W/m² | - |
| 1778264839 | 20° C | 40% | 1013.8 hPa | 0 mm | - | 655 W/m² | - |
| 1778264536 | 20° C | 41% | 1013.9 hPa | 0 mm | - | 665 W/m² | - |
| 1778264232 | 20° C | 40% | 1013.8 hPa | 0 mm | - | 663 W/m² | - |
| 1778263929 | 19.44° C | 41% | 1013.8 hPa | 0 mm | - | 371 W/m² | - |
| 1778263625 | 20° C | 41% | 1013.9 hPa | 0 mm | - | 419 W/m² | - |
| 1778263322 | 20° C | 40% | 1013.9 hPa | 0 mm | - | 83 W/m² | - |
| 1778263019 | 19.44° C | 44% | 1014 hPa | 0 mm | - | 83 W/m² | - |
| 1778262715 | 19.44° C | 41% | 1013.9 hPa | 0 mm | - | 686 W/m² | - |
| 1778262413 | 18.89° C | 43% | 1014 hPa | 0 mm | - | 640 W/m² | - |
| 1778262110 | 19.44° C | 46% | 1014.1 hPa | 0 mm | - | 536 W/m² | - |
| 1778261806 | 18.89° C | 43% | 1014.1 hPa | 0 mm | - | 504 W/m² | - |
| 1778261503 | 18.89° C | 42% | 1014.3 hPa | 0 mm | - | 506 W/m² | - |
| 1778261200 | 18.89° C | 46% | 1014.3 hPa | 0 mm | - | 518 W/m² | - |
| 1778260897 | 18.33° C | 42% | 1014.2 hPa | 0 mm | - | 640 W/m² | - |
| 1778260593 | 18.33° C | 43% | 1014.5 hPa | 0 mm | - | 714 W/m² | - |
| 1778260290 | 18.33° C | 42% | 1014.5 hPa | 0 mm | - | 702 W/m² | - |
| 1778259987 | 18.33° C | 45% | 1014.5 hPa | 0 mm | - | 704 W/m² | - |
| 1778259685 | 18.33° C | 42% | 1014.6 hPa | 0 mm | - | 704 W/m² | - |
| 1778259381 | 17.78° C | 43% | 1014.6 hPa | 0 mm | - | 669 W/m² | - |
| 1778259078 | 18.33° C | 43% | 1014.6 hPa | 0 mm | - | 704 W/m² | - |
| 1778258774 | 18.33° C | 42% | 1014.9 hPa | 0 mm | - | 683 W/m² | - |
| 1778258472 | 18.33° C | 44% | 1014.9 hPa | 0 mm | - | 691 W/m² | - |
| 1778258169 | 18.89° C | 43% | 1014.7 hPa | 0 mm | - | 677 W/m² | - |
* Rain latest hour (hover to see other rain measurements)
** Current wind speed in m/s (hover to see current wind gust speed)